Weather History for Tarboro, NC

Change the Weather History Date:

Wednesday, April 17, 2013

  Actual Average Record
Temperature  
Mean Temperature 68 °F -  
Max Temperature 87 °F 74 °F 91 °F (1976)
Min Temperature 53 °F 45 °F 31 °F (1983)
Cooling Degree Days 4    
Growing Degree Days 18 (Base 50)    
Moisture  
Dew Point 58 °F    
Average Humidity 70    
Maximum Humidity 96    
Minimum Humidity 41    
Precipitation  
Precipitation 0.00 in - - ()
Sea Level Pressure  
Sea Level Pressure 30.19 in    
Wind  
Wind Speed 2 mph (South)    
Max Wind Speed 9 mph    
Max Gust Speed -    
Visibility 8 miles    
Events Fog    
Averages and records for this station are not official NWS values.
T = Trace of Precipitation, MM = Missing Value Source: NWS Daily Summary

Daily Weather History Graph

Daily Weather History Graph

Search for Another Location

Airport:

Trip Planner

Search our weather history database for the weather conditions in past years. The results will help you decide how hot, cold, wet, or windy it might be!

Date:

Astronomy

Apr. 17, 2013 Rise Set
Actual Time 6:34 AM EDT 7:45 PM EDT
Civil Twilight 6:07 AM EDT 8:12 PM EDT
Nautical Twilight 5:36 AM EDT 8:43 PM EDT
Astronomical Twilight 5:03 AM EDT 9:16 PM EDT
Moon 11:50 AM EDT (4/17) 1:18 AM EDT (4/17)
Length of Visible Light 14h 04m
Length of Day
13h 11m
Waxing Crescent, 42% of the Moon is Illuminated
Apr 17
Waxing Crescent
Apr 18
First Quarter
Apr 25
Full
May 2
Last Quarter
May 9
New

Hourly Weather History & Observations

Time (EDT) Temp. Heat Index Dew Point Humidity Pressure Visibility Wind Dir Wind Speed Gust Speed Precip Events Conditions
12:15 AM 62.2 °F - 58.5 °F 87% 30.25 in 10.0 mi Calm Calm - N/A   Clear
12:35 AM 60.1 °F - 57.7 °F 92% 30.24 in 10.0 mi Calm Calm - N/A   Clear
12:55 AM 59.7 °F - 57.6 °F 93% 30.24 in 1.5 mi Calm Calm - N/A   Mist
1:15 AM 58.5 °F - 56.7 °F 94% 30.23 in 5.0 mi Calm Calm - N/A   Clear
1:35 AM 57.7 °F - 55.9 °F 94% 30.23 in 1.0 mi Calm Calm - N/A   Mist
1:55 AM 57.6 °F - 56.1 °F 95% 30.23 in 2.5 mi Calm Calm - N/A   Clear
2:15 AM 57.0 °F - 55.4 °F 94% 30.22 in 0.5 mi Calm Calm - N/A Fog Fog
2:35 AM 56.8 °F - 55.4 °F 95% 30.22 in 0.5 mi Calm Calm - N/A Fog Fog
2:55 AM 56.3 °F - 54.9 °F 95% 30.22 in 0.5 mi Calm Calm - N/A Fog Fog
3:15 AM 56.1 °F - 54.7 °F 95% 30.22 in 0.2 mi Calm Calm - N/A Fog Fog
3:35 AM 55.4 °F - 54.0 °F 95% 30.22 in 0.2 mi Calm Calm - N/A Fog Fog
3:55 AM 55.0 °F - 53.6 °F 95% 30.21 in 0.5 mi Calm Calm - N/A Fog Fog
4:15 AM 54.7 °F - 53.2 °F 95% 30.21 in 0.5 mi Calm Calm - N/A Fog Fog
4:35 AM 55.2 °F - 53.8 °F 95% 30.21 in 1.0 mi Calm Calm - N/A   Mostly Cloudy
4:55 AM 54.9 °F - 53.6 °F 96% 30.21 in 0.8 mi Calm Calm - N/A   Mostly Cloudy
5:15 AM 55.0 °F - 53.6 °F 95% 30.21 in 0.8 mi Calm Calm - N/A   Scattered Clouds
5:35 AM 54.5 °F - 53.2 °F 96% 30.21 in 0.5 mi Calm Calm - N/A Fog Fog
5:55 AM 54.0 °F - 52.7 °F 95% 30.21 in 1.2 mi Calm Calm - N/A   Scattered Clouds
6:15 AM 53.6 °F - 52.5 °F 96% 30.21 in 0.2 mi Calm Calm - N/A Fog Fog
6:35 AM 53.1 °F - 51.8 °F 95% 30.21 in 0.2 mi Calm Calm - N/A Fog Fog
6:55 AM 53.4 °F - 52.3 °F 96% 30.23 in 0.2 mi Calm Calm - N/A Fog Fog
7:15 AM 54.3 °F - 53.1 °F 95% 30.23 in 7.0 mi Calm Calm - N/A   Clear
7:35 AM 56.3 °F - 55.0 °F 96% 30.23 in 7.0 mi Calm Calm - N/A   Clear
7:55 AM 58.5 °F - 57.2 °F 96% 30.24 in 10.0 mi Calm Calm - N/A   Clear
8:15 AM 61.2 °F - 59.5 °F 94% 30.24 in 10.0 mi WSW 3.5 mph - N/A   Clear
8:35 AM 63.5 °F - 59.9 °F 88% 30.24 in 10.0 mi SSW 6.9 mph - N/A   Clear
8:55 AM 65.8 °F - 59.2 °F 79% 30.24 in 10.0 mi SSW 5.8 mph - N/A   Clear
9:15 AM 67.6 °F - 59.9 °F 76% 30.23 in 10.0 mi SSW 6.9 mph - N/A   Clear
9:35 AM 68.9 °F - 60.1 °F 73% 30.23 in 10.0 mi SW 6.9 mph - N/A   Clear
9:55 AM 70.7 °F - 60.8 °F 71% 30.22 in 10.0 mi SW 9.2 mph - N/A   Clear
10:15 AM 72.1 °F - 60.8 °F 67% 30.22 in 10.0 mi SW 5.8 mph - N/A   Scattered Clouds
10:35 AM 73.4 °F - 60.6 °F 64% 30.22 in 10.0 mi SW 5.8 mph - N/A   Clear
10:55 AM 75.0 °F - 61.3 °F 62% 30.21 in 10.0 mi SW 6.9 mph - N/A   Clear
11:15 AM 76.1 °F - 61.5 °F 60% 30.21 in 10.0 mi SW 4.6 mph - N/A   Clear
11:35 AM 77.0 °F - 61.2 °F 58% 30.21 in 10.0 mi SSW 6.9 mph - N/A   Clear
11:55 AM 77.9 °F - 61.3 °F 57% 30.20 in 10.0 mi SSW 5.8 mph - N/A   Clear
12:15 PM 78.6 °F - 61.2 °F 55% 30.20 in 10.0 mi SSW 5.8 mph - N/A   Clear
12:35 PM 79.5 °F - 61.0 °F 53% 30.18 in 10.0 mi Calm Calm - N/A   Clear
12:55 PM 80.2 °F 81.1 °F 60.4 °F 51% 30.17 in 10.0 mi SE 4.6 mph - N/A   Clear
1:15 PM 81.1 °F 81.8 °F 60.4 °F 49% 30.17 in 10.0 mi SSW 4.6 mph - N/A   Clear
1:35 PM 81.7 °F 82.3 °F 60.8 °F 49% 30.17 in 10.0 mi SE 3.5 mph - N/A   Scattered Clouds
1:55 PM 82.6 °F 82.9 °F 60.4 °F 47% 30.15 in 10.0 mi SSE 5.8 mph - N/A   Scattered Clouds
2:15 PM 83.5 °F 83.6 °F 60.3 °F 45% 30.15 in 10.0 mi WSW 6.9 mph - N/A   Scattered Clouds
2:35 PM 83.7 °F 83.6 °F 59.9 °F 44% 30.15 in 10.0 mi SSE 4.6 mph - N/A   Scattered Clouds
2:55 PM 84.2 °F 84.0 °F 59.4 °F 43% 30.14 in 10.0 mi WSW 4.6 mph - N/A   Scattered Clouds
3:15 PM 83.8 °F 83.6 °F 59.4 °F 43% 30.13 in 10.0 mi South 4.6 mph - N/A   Mostly Cloudy
3:35 PM 84.0 °F 83.8 °F 59.2 °F 43% 30.13 in 10.0 mi WSW 3.5 mph - N/A   Mostly Cloudy
3:55 PM 84.2 °F 83.8 °F 59.0 °F 42% 30.13 in 10.0 mi SW 3.5 mph - N/A   Overcast
4:35 PM 82.9 °F 82.8 °F 59.2 °F 44% 30.11 in 10.0 mi SE 3.5 mph - N/A   Overcast
4:55 PM 84.0 °F 83.8 °F 59.4 °F 43% 30.11 in 10.0 mi South 8.1 mph - N/A   Overcast
5:15 PM 84.7 °F 84.2 °F 58.8 °F 41% 30.11 in 10.0 mi South 6.9 mph - N/A   Overcast
5:35 PM 83.8 °F 83.6 °F 58.8 °F 43% 30.11 in 10.0 mi South 8.1 mph - N/A   Overcast
5:55 PM 82.0 °F 82.1 °F 59.0 °F 45% 30.11 in 10.0 mi South 6.9 mph - N/A   Mostly Cloudy
6:15 PM 81.9 °F 81.9 °F 58.6 °F 45% 30.12 in 10.0 mi South 8.1 mph - N/A   Scattered Clouds
6:35 PM 81.9 °F 81.9 °F 58.3 °F 45% 30.12 in 10.0 mi South 6.9 mph - N/A   Clear
6:55 PM 81.0 °F 81.2 °F 58.5 °F 46% 30.12 in 10.0 mi SSE 4.6 mph - N/A   Scattered Clouds
7:15 PM 79.9 °F - 58.8 °F 48% 30.12 in 10.0 mi South 3.5 mph - N/A   Scattered Clouds
7:35 PM 78.1 °F - 59.2 °F 52% 30.13 in 10.0 mi SSE 4.6 mph - N/A   Scattered Clouds
7:55 PM 76.6 °F - 59.5 °F 55% 30.13 in 10.0 mi SE 3.5 mph - N/A   Mostly Cloudy
8:15 PM 75.2 °F - 59.9 °F 59% 30.13 in 10.0 mi SSE 4.6 mph - N/A   Scattered Clouds
8:35 PM 74.5 °F - 60.1 °F 61% 30.14 in 10.0 mi SE 5.8 mph - N/A   Clear
8:55 PM 73.9 °F - 59.9 °F 61% 30.15 in 10.0 mi SE 5.8 mph - N/A   Clear
9:15 PM 73.0 °F - 60.1 °F 64% 30.17 in 10.0 mi SSE 5.8 mph - N/A   Clear
9:35 PM 72.3 °F - 60.1 °F 65% 30.17 in 10.0 mi SE 4.6 mph - N/A   Clear
10:15 PM 71.6 °F - 60.1 °F 67% 30.17 in 10.0 mi South 6.9 mph - N/A   Clear
10:35 PM 70.9 °F - 59.4 °F 67% 30.17 in 10.0 mi South 4.6 mph - N/A   Clear
10:55 PM 70.3 °F - 57.0 °F 63% 30.18 in 10.0 mi SSE 5.8 mph - N/A   Clear
11:15 PM 69.8 °F - 55.2 °F 60% 30.18 in 10.0 mi SSE 5.8 mph - N/A   Clear
11:35 PM 68.7 °F - 54.7 °F 61% 30.20 in 10.0 mi SSE 4.6 mph - N/A   Clear
11:55 PM 68.0 °F - 54.5 °F 62% 30.20 in 10.0 mi South 4.6 mph - N/A   Clear